This is the latest recevied weather packets stored in our database for station/object K6CED. If no packets are shown the sender has not sent any weather packets the latest 10 day(s).
| Time | Temp. | Humidity | Pressure | Rain* | Wind** | Luminosity | Snow |
|---|---|---|---|---|---|---|---|
| 1778001392 | 15.56° C | 68% | 1017.1 hPa | 0 mm | - | 633 W/m² | - |
| 1778001090 | 15.56° C | 69% | 1016.9 hPa | 0 mm | - | 453 W/m² | - |
| 1778000787 | 15° C | 74% | 1017.1 hPa | 0 mm | - | 675 W/m² | - |
| 1778000483 | 15° C | 74% | 1017 hPa | 0 mm | - | 313 W/m² | - |
| 1778000178 | 14.44° C | 77% | 1016.7 hPa | 0 mm | - | 612 W/m² | - |
| 1777999874 | 13.89° C | 77% | 1016.7 hPa | 0 mm | - | 267 W/m² | - |
| 1777999570 | 13.89° C | 77% | 1016.9 hPa | 0 mm | - | 207 W/m² | - |
| 1777999268 | 13.89° C | 76% | 1016.7 hPa | 0 mm | - | 191 W/m² | - |
| 1777998966 | 14.44° C | 78% | 1016.6 hPa | 0 mm | - | 221 W/m² | - |
| 1777998663 | 13.89° C | 78% | 1016.7 hPa | 0 mm | - | 270 W/m² | - |
| 1777998360 | 14.44° C | 79% | 1016.5 hPa | 0 mm | - | 226 W/m² | - |
| 1777998058 | 14.44° C | 77% | 1016.5 hPa | 0 mm | - | 237 W/m² | - |
| 1777997755 | 13.89° C | 77% | 1016.6 hPa | 0 mm | - | 380 W/m² | - |
| 1777997452 | 13.89° C | 78% | 1016.6 hPa | 0 mm | - | 289 W/m² | - |
| 1777997150 | 13.89° C | 78% | 1016.3 hPa | 0 mm | - | 269 W/m² | - |
| 1777996847 | 13.89° C | 81% | 1016.6 hPa | 0 mm | - | 288 W/m² | - |
| 1777996543 | 13.89° C | 82% | 1016.3 hPa | 0 mm | - | 260 W/m² | - |
| 1777996239 | 13.89° C | 82% | 1016.4 hPa | 0 mm | - | 297 W/m² | - |
| 1777995936 | 13.89° C | 82% | 1016.4 hPa | 0 mm | - | 386 W/m² | - |
| 1777995632 | 13.33° C | 84% | 1016.7 hPa | 0 mm | - | 410 W/m² | - |
| 1777995330 | 13.33° C | 86% | 1016.4 hPa | 0 mm | - | 326 W/m² | - |
| 1777995026 | 13.33° C | 88% | 1016.3 hPa | 0 mm | - | 264 W/m² | - |
| 1777994723 | 12.78° C | 88% | 1016.4 hPa | 0 mm | - | 233 W/m² | - |
| 1777994419 | 13.33° C | 88% | 1016.3 hPa | 0 mm | - | 233 W/m² | - |
| 1777994114 | 13.33° C | 88% | 1016.3 hPa | 0 mm | - | 179 W/m² | - |
* Rain latest hour (hover to see other rain measurements)
** Current wind speed in m/s (hover to see current wind gust speed)